Location: *
(51.1248°S, 108.4023°W)
Time: 21:03:50
(UTC+00:00)

USA 238 DEB - Pass Details

Date: 15 June 2021
Orbit: 991 x 1221 km, 63.4° (Epoch: 16 July)

Event Time Altitude Azimuth Distance (km) Brightness Sun altitude
Rises 23:39:30 0° 225° (SW) 3,959 6.9 -4.4°
Reaches altitude 10° 23:42:15 10° 226° (SW) 2,963 6.2 -4.8°
Maximum altitude 23:49:12 72° 308° (NW) 1,108 4.1 -5.7°
Drops below altitude 10° 23:55:46 10° 31° (NNE) 2,799 5.9 -6.6°
Sets 23:58:18 0° 33° (NNE) 3,726 6.5 -6.9°
